Regional Weather Roundup
Issued by NWS

Home | Current Version | Previous Version | Text Only | Print | Product List | Glossary On
Versions: 1 2 3 4 5 6 7 8 9 10 11 12 13 14 15 16 17 18 19 20 21 22 23 24 25 26 27 28 29 30 31 32 33 34 35 36 37 38 39 40 41 42 43 44 45 46 47 48 49 50
000
ASCA42 TJSJ 301110
RWRPR
PUERTO RICO/U.S. VIRGIN ISLANDS HOURLY WEATHER ROUNDUP
NATIONAL WEATHER SERVICE SAN JUAN PR
700 AM AST MON MAR 30 2015

PRZ001-004-301200-
PUERTO RICO

CITY           SKY/WX    TMP DP  RH WIND       PRES   REMARKS
SAN JUAN LMM   PTCLDY    73  70  88 CALM      30.07R
PONCE          PTCLDY    66  61  82 E6        30.00S
AGUADILLA      PTCLDY    70  64  83 SE5       30.07
CEIBA          CLOUDY    75  70  83 E5        30.08R
$$

PRZ006-007-301200-
U.S. VIRGIN ISLANDS

CITY           SKY/WX    TMP DP  RH WIND       PRES   REMARKS
$$

HOURLY WEATHER ROUNDUP FOR THE NEWS MEDIA

CITY           SKY/WX    TMP DP  RH WIND       PRES   REMARKS
ORLANDO        CLEAR     49  45  86 E5        30.25S
NEW YORK       FLURRIES  37  25  61 SW10      29.97F WCI  30
NEWARK         CLOUDY    36  26  67 S5        29.93F WCI  32
CHICAGO        CLEAR     35  28  75 W9        29.99R WCI  28
HARTFORD       MOCLDY    35  29  78 SW9       29.98F WCI  28
BOSTON         CLOUDY    33  24  69 SW13      29.94F WCI  24
DALLAS         PTCLDY    63  57  82 SE8       30.10S
PHILADELPHIA   CLOUDY    36  31  82 S15       29.96F WCI  27
LOS ANGELES    PTCLDY    58  55  90 CALM      30.00S
WASHINGTON DC  CLOUDY    43  19  38 S8        29.92F


USA.gov is the U.S. government's official web portal to all federal, state and local government web resources and services.